Location: Chmeli�t?
(49.8978°N, 15.0526°E)
Time: 21:30:00
(UTC+00:00)

STARLINK-1340 - Pass Details

Date: 07 June 2020
Orbit: 379 x 380 km, 53.0° (Epoch: 04 July)

Event Time Altitude Azimuth Distance (km) Brightness Sun altitude
Rises 01:30:15 0° 291° (WNW) 2,257 6.6 -9.9°
Reaches altitude 10° 01:32:18 10° 291° (WNW) 1,402 5.6 -9.7°
Maximum altitude 01:35:26 85° 206° (SSW) 387 2.8 -9.4°
Drops below altitude 10° 01:38:33 10° 115° (ESE) 1,397 5.9 -9.1°
Sets 01:40:36 0° 115° (ESE) 2,247 6.9 -8.9°
